RH
62 63 66 77 77 81 83 91 88 92 76 76 76 87 84 87 87 90 90 82 83 78 72 72 76 71 64 60 65 62 57 55 50 42 46 53 74 75 65 67 69 66 61
60 68 71 75 76 74 76 78 80 78 81 85 90 89 84 87 88 88 88 80 84 85 83 80 75 76 76 74 69 64 59 56 55 56 50 51 65 66 70 72 68 55 52
64 66 72 77 67 66 69 68 73 74 70 66 76 84 85 87 86 87 78 77 78 79 86 85 82 83 85 79 81 80 78 76 80 74 62 64 63 60 63 67 69 65 64
62 63 72 72 75 73 71 70 71 76 73 73 74 74 76 78 76 77 76 78 77 77 82 82 82 85 88 90 90 89 91 90 88 89 90 86 86 80 80 79 75 74 73
67 68 76 76 71 75 78 79 77 77 79 79 76 76 75 65 65 82 73 70 72 68 68 72 75 79 77 78 80 89 90 86 89 89 83 74 67 67 88 89 93 78 74
82 81 85 80 81 81 83 83 81 78 80 78 75 76 72 59 80 76 75 67 70 69 67 67 74 78 80 76 73 72 76 80 74 67 55 49 52 55 48 50 48 47 45
92 89 85 84 83 82 82 81 80 80 82 81 80 77 82 86 81 77 72 64 68 72 74 74 68 61 75 78 78 78 73 75 73 77 72 63 60 59 61 63 60 60 58
85 82 83 83 81 82 82 82 85 81 78 76 77 80 81 87 82 77 70 74 68 72 75 74 76 85 94 94 88 76 72 75 76 76 73 74 73 77 86 78 78 77 68
85 88 93 86 82 83 82 81 76 77 79 78 81 84 85 92 80 73 70 68 64 70 72 78 81 84 89 81 80 78 78 74 63 73 74 75 75 72 70 73 64 56 50
81 78 75 71 87 86 81 81 80 78 77 79 84 91 91 90 74 70 69 65 63 62 67 73 80 82 81 77 81 76 72 68 70 71 72 70 69 79 72 78 72 62 53
96 96 98 96 84 79 88 84 82 78 84 88 87 90 92 82 91 64 59 74 67 60 56 58 72 84 88 97 92 89 90 96 80 76 70 69 77 79 82 88 84 85 78
100 93 92 96 95 83 88 87 87 87 93 94 88 78 78 83 70 69 64 69 76 75 69 66 80 84 84 87 86 88 88 86 78 75 75 73 71 72 68 73 84 83 91
99 100 98 94 94 90 90 87 83 85 70 70 65 56 50 50 58 73 76 76 81 77 78 81 80 82 83 86 82 80 79 70 65 60 61 65 68 72 80 75 73 74 76
92 95 96 92 90 89 84 80 63 60 57 56 47 40 42 45 48 55 60 66 69 74 75 74 77 77 74 74 71 70 70 73 72 69 71 72 70 70 68 70 70 73 74
95 99 94 91 92 85 66 62 56 58 52 45 43 45 43 42 59 71 73 72 73 75 77 66 62 60 56 56 56 58 58 61 63 65 71 72 66 63 64 68 69 72 69
99 100 99 94 83 79 79 77 70 68 62 55 55 53 51 44 37 61 70 71 69 71 65 56 52 48 45 44 42 41 42 46 50 48 50 54 56 57 60 58 60 63 63
99 100 94 79 72 70 63 60 64 77 73 61 58 52 57 54 43 43 57 65 54 64 49 46 44 42 41 41 39 39 39 48 50 43 44 44 45 45 45 46 53 55 53
91 82 69 59 58 60 57 56 53 58 63 69 70 63 55 53 52 52 50 63 58 50 44 43 43 44 44 45 44 44 46 43 43 46 44 45 47 48 46 46 47 54 53
80 71 56 54 54 51 51 50 47 50 50 52 65 76 71 62 60 61 56 62 44 41 41 42 43 43 47 50 53 55 60 52 49 49 44 44 47 47 47 49 48 51 53
64 54 54 51 52 51 50 49 48 49 49 48 51 54 65 79 67 60 59 49 44 42 43 44 46 48 50 55 58 58 55 53 48 43 44 46 46 46 44 44 44 46 45
51 57 57 50 46 46 47 48 45 45 43 41 42 47 50 56 44 43 44 44 43 40 45 47 47 51 54 57 58 56 54 52 49 43 41 42 45 43 43 43 42 41 42
45 48 53 46 41 40 40 40 39 37 35 36 38 50 50 50 43 44 46 46 46 49 49 53 53 51 50 53 56 55 52 49 46 41 42 44 45 45 46 44 43 40 40
46 45 47 44 39 38 37 34 32 33 36 37 35 36 47 43 43 43 44 45 47 48 49 53 53 50 49 52 54 53 50 48 47 45 46 46 46 46 48 45 44 42 43
46 46 45 41 40 37 35 34 34 35 36 34 35 35 37 40 40 40 43 44 45 46 48 50 52 52 51 57 53 54 53 54 52 46 53 50 48 48 49 47 43 44 42
38 43 46 45 43 38 35 34 35 35 36 34 36 36 37 38 38 39 41 43 46 46 47 48 50 53 55 58 59 54 55 55 50 48 48 52 55 56 53 46 43 44 42
46 49 55 52 45 40 36 36 36 37 37 36 36 35 36 38 38 38 40 42 47 48 46 46 48 51 52 52 54 55 58 52 45 45 50 51 52 52 50 49 49 48 46
Wind_Speed
15 13 11 9 8 7 5 5 4 3 2 3 4 7 7 9 10 12 11 11 14 14 14 13 15 15 15 13 13 12 12 11 10 10 9 9 9 10 11 11 11 12 15
15 14 12 10 11 10 8 5 4 3 2 1 1 3 6 7 7 8 9 9 11 12 12 13 14 15 16 15 15 15 15 13 14 12 13 11 11 12 14 15 15 18 19
15 14 13 13 10 9 8 8 6 5 4 3 2 3 2 1 3 4 6 7 9 10 10 12 12 12 14 14 14 14 15 15 13 15 17 14 15 16 15 16 17 18 19
16 16 15 14 13 12 10 9 7 6 3 3 2 2 2 3 2 3 2 3 3 2 4 4 7 9 10 10 11 11 11 12 12 13 14 14 12 16 15 16 18 17 18
16 16 16 15 14 13 10 7 5 4 4 3 3 1 0 1 3 4 4 4 6 5 5 4 2 3 1 1 2 2 3 6 6 7 9 11 13 12 11 10 12 16 15
18 19 18 16 16 12 9 6 6 5 4 4 4 4 2 2 2 3 3 4 5 5 6 6 6 6 5 6 7 8 7 8 12 14 16 15 14 15 15 16 16 17 15
18 17 15 13 13 13 10 7 5 4 4 3 3 3 2 2 2 2 2 4 5 5 5 6 8 2 4 7 9 10 10 11 13 13 15 16 17 16 16 17 18 18 19
22 19 15 12 11 9 11 8 5 4 4 4 2 3 4 3 3 3 3 2 3 4 5 5 6 6 3 8 10 10 10 11 11 11 11 12 12 10 10 14 17 19 22
20 19 14 11 10 8 6 7 5 5 5 5 5 5 5 4 3 2 4 4 3 4 3 4 4 5 7 9 8 10 11 12 13 11 11 15 17 18 18 16 19 21 21
30 22 20 18 13 12 5 6 6 6 6 8 8 7 7 3 0 2 5 6 6 6 6 3 6 5 12 12 9 10 11 10 9 11 14 15 15 14 15 15 15 19 19
9 13 15 16 20 17 8 6 7 7 9 9 8 7 4 2 4 6 6 4 5 5 4 2 1 10 9 8 5 5 6 9 10 11 10 10 9 7 7 8 9 12 16
17 22 19 14 15 19 11 8 8 9 9 7 7 5 3 2 3 6 5 3 3 3 4 4 5 9 9 9 6 6 5 5 7 6 6 7 9 10 11 13 15 15 15
18 17 22 18 13 14 12 11 11 10 8 9 7 5 4 2 2 7 8 8 6 3 3 4 6 7 7 5 9 5 6 5 7 7 8 8 8 9 10 9 10 11 14
21 19 18 18 14 13 12 12 12 11 9 8 6 4 4 2 2 2 3 4 6 3 6 4 5 4 5 3 6 6 6 6 6 7 9 9 9 8 8 10 11 12 13
22 20 16 14 15 13 12 11 9 6 6 8 7 5 3 3 2 2 3 2 2 4 3 2 2 2 3 4 5 6 7 6 7 6 7 9 9 9 9 9 10 10 10
20 19 20 21 18 17 13 11 9 9 10 9 10 7 5 5 3 3 2 3 4 2 0 1 2 3 3 4 5 5 6 8 8 8 8 8 9 10 10 9 10 10 10
21 20 19 17 17 16 15 14 14 10 10 9 8 7 6 3 3 3 2 3 3 2 2 2 2 1 2 3 3 4 5 6 7 8 8 8 9 9 8 9 10 10 11
15 17 17 18 17 16 15 15 15 15 13 11 11 10 7 4 2 2 1 1 4 3 2 2 2 1 1 2 2 3 4 5 6 6 7 7 8 9 9 10 9 11 13
15 15 15 14 15 15 14 13 12 12 11 10 11 12 11 8 5 3 2 4 4 4 4 4 4 3 1 0 2 3 4 5 5 6 6 6 7 7 7 8 10 9 11
14 12 14 14 13 14 13 12 12 11 11 11 12 12 12 10 9 8 7 5 6 6 4 5 5 4 3 3 2 3 4 4 4 5 5 6 6 7 8 9 10 12 12
13 13 15 13 13 13 13 13 13 12 11 11 12 10 9 11 9 6 6 6 6 6 5 6 6 6 6 6 4 4 5 5 4 4 5 4 5 7 8 9 9 10 11
13 15 17 14 12 12 12 11 11 11 12 11 10 9 10 11 9 7 7 7 6 7 6 6 7 8 7 6 6 7 7 6 4 4 3 4 5 6 8 8 10 11 12
13 14 14 13 12 11 10 11 11 12 11 10 10 11 11 12 11 9 7 6 6 8 9 10 10 9 9 8 8 8 8 6 4 4 3 4 5 6 8 9 10 11 13
12 13 14 14 14 13 14 15 13 11 11 12 11 11 11 11 12 10 8 8 9 10 11 12 13 12 11 10 9 9 9 7 5 4 4 5 6 6 8 9 10 12 15
12 14 15 14 14 16 15 15 13 12 14 13 14 13 13 12 11 11 11 12 12 13 13 13 13 14 15 14 13 11 8 11 9 8 6 7 9 8 9 11 12 14 15
11 9 12 13 16 18 18 15 15 16 17 16 15 14 13 12 13 14 14 14 15 17 16 15 14 13 14 14 14 12 14 13 11 11 11 10 11 11 12 13 15 17 17
Wind_Direction
183 178 172 179 183 172 176 186 157 159 193 218 236 228 216 219 219 217 218 220 217 224 232 225 226 231 233 233 237 238 244 241 252 258 219 237 244 261 262 265 262 254 253
173 170 168 170 167 160 154 147 128 109 80 62 167 191 207 229 234 234 234 238 229 230 231 235 230 225 230 237 236 240 247 243 246 249 261 256 241 257 261 264 264 264 263
173 171 168 162 155 148 141 131 117 102 94 96 72 33 42 104 212 238 255 259 254 251 249 243 244 240 243 247 244 246 250 251 248 253 263 263 266 265 264 260 262 265 265
174 166 164 162 153 149 144 139 136 130 132 121 108 93 56 61 46 46 46 28 359 336 288 266 258 261 260 265 263 259 259 260 259 258 267 280 286 281 277 276 280 272 274
167 163 162 154 145 142 141 139 137 146 144 141 137 125 187 357 6 354 331 323 321 313 321 334 34 25 346 275 284 273 291 271 269 271 268 270 271 276 275 273 275 278 278
162 159 156 152 144 140 139 143 134 133 117 118 121 122 114 78 31 8 345 314 307 298 295 293 285 280 292 293 274 268 255 268 271 276 276 275 284 280 281 287 288 293 294
153 150 149 152 150 144 143 142 144 140 132 122 119 124 112 81 82 52 24 322 307 310 302 301 301 321 318 299 293 298 280 273 260 261 270 275 285 282 285 284 280 287 283
148 144 145 160 149 147 146 148 155 166 157 144 140 140 136 72 92 69 63 345 325 320 323 322 320 333 324 339 327 299 285 282 278 278 281 291 290 292 298 289 294 287 280
143 135 145 155 153 145 163 148 160 164 158 142 133 134 131 97 115 58 351 310 313 302 301 308 323 319 301 301 311 301 298 293 295 273 287 286 280 280 279 278 277 282 285
153 170 183 176 171 132 198 159 172 186 171 151 144 140 136 109 103 345 321 310 300 299 284 265 283 300 309 308 300 287 284 285 287 282 288 289 285 274 278 265 276 273 279
203 183 180 175 168 140 186 189 187 188 159 152 146 147 134 108 350 332 327 354 333 329 335 352 348 336 339 348 8 319 306 302 298 290 296 301 337 347 358 354 313 303 292
171 170 165 161 159 153 159 186 182 180 162 159 151 167 150 99 31 2 13 23 359 335 341 348 336 338 335 340 351 325 329 325 308 304 301 300 311 314 308 308 308 303 300
162 163 172 170 166 154 165 188 197 194 185 179 172 160 136 106 51 3 34 30 23 11 359 325 330 356 5 344 354 25 17 351 337 322 332 328 324 322 325 323 318 315 308
166 165 165 161 160 157 175 194 202 189 181 164 161 151 126 108 67 29 4 356 350 352 346 332 344 22 33 35 18 7 7 9 9 358 348 338 334 336 346 348 335 333 325
166 162 160 161 156 168 187 191 194 169 173 168 155 144 137 108 75 103 80 49 9 347 342 329 359 14 16 37 42 28 24 14 8 9 4 360 352 358 5 3 4 359 351
157 158 165 169 172 177 180 175 174 167 174 159 152 133 114 120 81 88 70 36 22 92 259 131 87 66 50 30 32 29 27 15 4 3 1 355 351 351 353 4 3 359 351
166 168 174 179 181 182 181 179 171 173 177 179 176 164 158 155 71 68 58 69 78 105 217 123 117 94 75 63 43 30 23 17 358 4 1 357 353 350 349 2 356 353 352
178 181 184 188 186 183 186 186 182 180 185 189 200 194 193 175 137 93 83 212 221 208 212 209 181 182 132 60 18 3 11 15 360 360 356 355 349 346 354 356 357 356 353
180 188 195 191 189 185 183 186 194 194 198 191 178 203 212 203 205 222 232 245 261 237 215 221 224 218 170 353 351 337 340 360 347 349 343 338 340 340 350 350 347 344 335
195 193 194 190 179 183 184 194 201 207 212 212 205 210 187 199 214 223 219 228 232 236 232 243 243 248 246 254 284 319 314 320 335 324 324 324 332 335 345 347 348 341 341
187 189 197 193 190 195 201 207 215 215 220 226 221 209 185 209 234 227 234 222 231 235 229 249 256 254 253 255 266 277 284 292 301 302 307 327 340 346 348 348 342 341 338
191 182 192 198 198 196 202 209 215 220 228 222 213 160 209 217 236 227 226 227 225 233 242 245 258 256 255 253 257 257 261 269 274 285 299 323 342 346 342 337 339 342 345
200 197 195 199 201 199 203 219 214 217 211 208 217 189 193 216 220 221 221 226 230 239 238 240 248 257 254 248 247 254 261 260 255 262 292 318 329 341 324 334 334 339 342
204 206 203 204 203 202 208 210 211 215 207 203 208 215 217 210 219 215 229 230 232 239 242 243 248 253 257 254 255 251 246 238 233 255 275 298 300 314 318 318 325 335 326
214 207 214 212 213 211 213 227 212 209 211 214 212 219 220 226 230 228 236 232 237 243 245 249 252 254 251 248 248 247 249 247 240 235 252 269 283 296 297 306 317 319 319
208 209 206 209 210 213 227 223 227 220 219 219 223 231 231 237 239 244 242 242 238 241 248 252 253 252 249 244 238 235 239 250 244 244 244 258 272 282 293 301 308 308 307